Helicity
94 99 79 86 112 133 110 100 98 77 83 44 11 30 37 70 97 153 174 144 137 143 127 130 143 107 107 84 81 76 105 108 124 153 180 216 215 219 209 219 165 128 133 168
63 70 62 58 63 79 79 77 74 62 32 30 33 50 47 88 124 116 131 118 124 128 134 120 106 122 135 91 76 78 75 87 106 145 172 178 199 169 200 192 194 171 133 139
67 59 50 53 52 55 54 61 73 57 77 17 50 16 48 85 74 96 107 96 80 76 79 87 94 117 124 162 108 107 97 85 86 95 135 200 197 177 181 207 210 217 187 145
35 31 28 43 49 52 63 75 65 68 78 64 111 48 60 108 81 104 86 87 87 87 88 82 98 95 109 137 207 148 146 110 99 106 119 113 208 178 177 226 224 237 199 181
34 26 27 38 51 28 83 54 60 61 57 52 64 86 98 88 94 103 117 84 73 60 23 43 136 90 126 142 143 168 134 115 104 102 100 124 151 157 167 201 214 213 213 222
32 20 19 21 32 21 50 68 39 21 26 84 42 42 60 53 -12 37 35 20 12 4 -0 84 183 111 58 81 112 146 91 83 81 79 72 81 104 139 146 164 180 214 212 201
41 6 12 1 33 36 21 23 67 52 30 52 61 2 -21 9 28 -7 -24 -43 -81 -4 77 86 55 101 125 107 128 80 88 61 52 53 61 62 71 124 105 156 177 179 186 193
38 39 7 26 10 25 14 30 39 22 14 -14 -77 -22 -25 40 28 -51 -40 -82 -43 4 27 50 77 35 71 105 100 74 -34 59 56 47 57 54 39 83 102 124 138 149 138 140
24 10 -9 -16 -19 -20 -12 -29 -9 -31 -32 -30 -16 -7 21 50 -1 -8 -8 10 -11 51 42 90 92 55 52 141 166 65 85 26 55 85 58 42 50 48 86 104 128 148 121 138
5 4 -18 -31 -22 -16 -20 -27 -14 -18 -0 33 37 50 64 101 62 26 3 27 46 34 39 90 102 74 76 233 328 215 270 275 225 239 203 224 225 255 244 193 192 215 200 176
13 -4 -21 -14 27 28 16 -0 3 18 48 41 35 31 118 164 104 68 21 10 -12 -4 -9 6 1 62 86 179 311 326 256 265 244 211 177 183 193 207 186 173 180 181 218 230
29 29 57 52 7 13 31 25 24 45 20 42 40 32 98 143 105 72 29 14 22 19 22 25 -11 -20 40 148 311 333 246 266 262 237 228 183 132 144 198 236 244 209 268 335
41 69 69 60 64 70 98 134 72 39 -7 48 36 63 96 122 101 68 40 25 25 34 41 28 14 6 -13 -4 129 259 230 231 192 254 292 300 290 261 248 269 296 245 268 371
60 95 115 117 77 58 61 69 102 69 55 38 102 67 100 124 101 75 72 50 45 51 49 50 45 4 -10 -11 -24 21 146 180 179 293 217 162 272 240 210 215 288 256 209 239
82 106 119 159 152 97 85 79 83 118 92 40 23 -5 -6 102 87 72 82 77 60 62 63 58 58 50 15 -6 -11 -22 -35 -36 76 125 109 84 69 124 189 141 91 52 50 43
66 78 73 90 45 31 98 103 92 85 87 86 61 36 10 49 90 99 90 80 68 63 74 74 72 66 47 15 -3 -15 -15 -6 2 -8 -11 -0 -3 -0 6 13 12 21 33 54
51 60 30 63 61 -9 62 102 90 126 126 106 102 73 55 77 104 94 89 82 73 74 91 95 85 81 64 40 18 8 -1 -4 6 9 15 24 25 30 33 33 50 63 67 68
80 47 46 56 -13 -11 73 101 79 105 93 93 70 82 104 76 90 88 95 87 81 95 102 110 102 89 73 53 46 36 24 23 20 18 16 5 4 12 19 35 40 43 49 52
98 88 71 15 -15 44 4 45 70 95 65 72 60 48 76 107 164 115 100 94 91 123 127 118 114 102 85 65 57 46 40 38 33 23 19 24 27 29 33 37 42 49 56 70
112 92 87 71 53 49 62 97 107 87 58 145 106 81 84 97 115 64 162 104 113 157 165 160 131 117 96 77 70 58 52 45 35 20 17 19 25 28 37 38 42 49 54 56
72 70 130 87 113 74 189 115 88 81 164 183 137 103 85 84 73 97 94 91 106 149 172 170 146 114 107 91 72 64 54 36 19 6 18 31 35 39 45 41 36 40 44 47
123 91 120 88 144 97 163 168 173 205 157 136 112 102 125 104 81 95 97 81 104 131 153 156 151 148 120 101 77 70 55 34 20 22 42 53 58 56 54 56 49 45 48 38
106 118 147 180 198 280 216 159 240 207 185 116 70 47 65 62 60 59 102 129 108 108 135 143 154 144 120 106 86 70 59 47 41 54 67 73 76 72 62 48 40 28 30 28
153 158 239 193 100 72 112 158 139 190 194 198 142 62 29 28 43 80 77 101 139 139 126 135 147 124 124 112 107 97 67 51 46 58 69 77 80 74 51 32 27 22 37 36
193 287 194 171 107 58 65 136 193 209 131 88 70 89 63 81 49 55 80 86 111 153 180 165 129 132 140 125 114 95 71 59 56 63 77 83 79 64 45 38 39 36 59 54
332 267 278 253 98 103 134 166 179 122 92 91 97 66 57 88 83 58 89 100 119 159 178 171 179 173 151 132 108 83 74 68 68 72 85 95 80 60 44 35 34 45 38 38
Wind_Speed
26 32 38 37 36 39 42 48 54 54 53 61 61 72 74 72 62 60 66 75 80 84 84 84 86 85 86 81 80 77 76 71 67 68 70 73 73 67 66 69 66 61 59 54
23 25 26 26 29 34 39 45 50 48 44 59 64 77 71 47 55 56 70 80 86 91 93 93 92 91 88 84 79 77 75 73 71 69 69 71 72 72 69 66 71 66 60 57
25 21 20 24 28 33 38 44 48 51 62 57 62 62 43 43 54 61 78 82 85 92 98 99 98 95 89 87 80 77 75 72 71 69 69 71 69 71 74 72 68 70 65 59
22 23 23 28 33 35 41 37 44 52 57 58 60 67 54 54 62 74 79 80 85 89 94 98 99 94 87 83 81 74 72 70 68 67 70 71 74 77 77 74 68 67 68 64
22 22 25 30 34 30 39 41 49 52 56 62 51 57 49 57 68 73 76 79 84 89 95 101 100 94 83 76 71 68 64 64 63 62 66 68 75 73 72 72 70 69 70 65
26 28 33 35 33 30 44 46 46 40 45 57 40 45 52 53 60 63 66 76 82 87 92 93 93 82 49 57 60 58 56 58 57 56 59 66 70 70 73 73 70 69 67 66
29 24 28 25 29 28 32 39 42 44 41 46 31 43 49 52 51 57 64 70 68 80 84 83 76 67 57 51 44 42 55 56 52 50 50 56 62 66 68 71 68 66 66 63
27 27 23 23 31 33 29 34 35 42 44 43 40 39 35 17 12 44 11 40 51 60 75 75 72 71 62 55 50 48 15 38 43 47 46 49 55 58 62 65 66 68 68 66
27 27 31 34 33 33 32 38 37 40 38 37 34 33 24 21 19 10 4 5 47 19 40 33 48 77 62 58 50 39 35 10 15 35 46 45 47 53 55 56 58 62 61 61
27 31 33 31 31 33 35 35 36 36 32 32 31 31 26 22 20 9 7 17 35 51 63 42 43 40 76 59 48 31 28 28 28 28 26 28 32 33 34 37 41 47 54 54
27 29 31 30 33 31 32 31 35 34 34 30 26 24 23 25 25 27 27 36 48 53 62 64 70 73 71 69 40 31 32 34 30 22 19 19 22 22 23 28 34 39 43 46
27 26 29 32 29 31 30 30 34 34 31 28 22 18 26 24 22 23 25 37 32 48 51 57 66 72 77 77 44 15 48 41 29 18 15 18 20 21 24 26 29 32 35 38
29 30 24 30 33 33 30 32 29 32 27 26 23 20 24 21 18 17 22 24 34 37 43 52 58 64 66 70 63 55 24 10 4 22 21 22 22 21 22 24 27 28 30 32
29 27 28 27 25 26 28 27 27 28 26 22 20 13 17 14 13 13 18 20 24 31 35 40 48 56 58 60 62 53 34 11 45 40 27 21 20 22 23 26 26 25 26 27
27 22 24 24 28 31 29 26 22 19 21 14 12 13 4 9 9 12 18 22 25 28 31 35 38 42 47 51 52 53 48 34 22 21 26 24 25 21 19 20 22 24 26 29
23 18 21 26 20 18 16 18 16 14 13 13 21 27 8 22 14 15 16 19 21 23 27 31 33 36 39 41 44 45 46 43 34 31 29 32 31 34 25 29 30 30 32 34
11 14 45 23 36 39 12 10 9 2 8 6 13 24 38 21 14 17 18 18 18 19 22 24 27 30 33 35 37 40 40 38 39 39 39 36 36 36 36 35 37 38 38 39
21 19 15 16 31 8 31 38 38 7 18 15 22 36 41 35 27 24 20 20 18 17 16 18 21 24 27 30 32 35 37 39 41 40 39 39 39 39 38 39 40 41 42 44
19 15 11 10 9 26 8 31 30 20 19 20 24 36 41 46 44 33 22 19 15 12 10 12 15 19 23 26 29 33 37 39 41 43 44 44 43 41 41 41 42 44 45 46
14 11 14 7 4 9 15 34 34 34 12 42 45 45 43 29 34 48 21 16 15 15 11 12 14 17 20 23 26 31 35 39 42 44 45 45 45 44 44 46 46 47 47 48
11 10 12 11 4 8 24 26 30 18 22 43 50 53 51 39 39 44 32 21 18 15 13 13 14 17 21 23 26 30 34 38 42 44 44 45 46 46 46 46 46 47 48 48
8 10 10 11 10 12 21 23 18 24 23 30 39 47 52 53 52 47 40 31 23 19 17 16 18 21 24 28 31 34 37 40 42 44 47 48 49 47 47 47 46 47 48 49
10 6 14 7 14 29 14 9 20 27 24 22 21 23 26 41 58 55 41 32 28 23 20 17 21 22 26 30 34 36 40 43 45 47 48 48 47 46 46 47 49 49 50 52
13 7 16 29 20 10 14 13 12 17 20 27 22 19 20 20 30 49 48 40 31 26 24 23 22 24 28 31 36 38 42 45 46 47 47 46 46 48 47 48 49 51 54 57
16 28 21 21 23 21 19 23 32 27 26 24 23 21 17 18 17 19 32 40 35 30 27 26 28 30 31 33 37 40 44 46 47 47 46 46 47 49 51 51 52 53 53 56
24 22 21 30 30 25 28 33 34 33 31 31 32 31 26 16 13 12 16 26 35 35 32 31 31 32 33 35 38 41 44 45 46 46 46 47 50 52 53 56 57 48 52 55
Wind_Direction
273 273 270 275 283 286 287 286 286 290 297 296 296 295 299 305 309 310 309 308 306 304 306 305 303 299 295 291 285 281 277 275 273 272 268 264 262 264 262 260 260 261 260 259
280 280 292 291 293 291 291 291 293 299 305 300 299 297 302 313 315 318 315 311 309 307 306 306 303 299 296 291 286 281 277 274 271 270 270 266 264 263 263 260 257 260 256 256
280 295 303 299 296 294 295 293 296 298 300 304 306 305 314 320 322 321 318 316 315 313 310 307 303 299 295 290 286 281 276 273 271 269 269 268 265 264 261 260 257 255 257 256
292 292 293 292 292 295 295 309 304 305 307 300 315 298 307 319 321 322 325 327 321 318 314 310 305 300 295 291 287 281 277 274 272 269 267 263 262 262 262 260 257 256 255 257
288 292 295 295 300 309 306 310 306 307 307 307 312 303 311 323 323 330 327 311 312 314 316 311 305 299 296 294 287 285 279 276 273 270 267 265 262 262 264 259 257 257 256 255
284 298 290 297 317 322 309 313 316 320 316 306 313 313 315 325 321 303 307 317 325 328 328 325 315 307 310 306 287 289 280 276 274 271 269 266 264 263 262 261 257 256 255 255
269 328 320 341 339 349 335 322 316 315 317 316 332 302 261 308 329 326 315 324 325 333 336 333 327 328 320 320 307 296 282 276 275 272 271 269 267 264 263 260 257 256 256 255
329 336 30 30 337 333 337 330 325 309 272 244 223 222 227 81 138 299 271 299 319 329 338 338 335 339 332 320 307 294 220 285 281 275 274 272 268 266 263 259 258 257 258 258
321 327 211 180 212 236 275 241 250 234 219 225 199 215 191 134 179 183 112 33 316 27 338 338 336 1 331 328 315 319 307 302 304 290 278 275 273 269 266 260 261 258 261 264
198 174 171 175 182 191 220 240 207 203 208 211 195 217 192 128 117 209 142 71 42 29 24 39 40 36 4 337 341 353 353 357 349 313 293 291 288 289 278 269 269 267 269 273
175 174 173 176 171 182 169 185 189 201 184 193 222 200 78 104 90 71 64 44 31 26 20 24 27 35 32 32 354 9 11 12 356 333 319 313 309 301 293 283 281 278 279 281
166 172 168 168 176 175 176 182 181 171 142 160 168 172 85 94 89 63 50 32 49 35 33 34 26 32 40 36 10 354 28 23 2 334 320 338 336 321 308 296 290 291 290 291
150 146 164 154 145 158 164 142 145 170 168 177 183 121 90 107 101 95 53 55 40 45 43 36 34 37 40 41 34 26 120 8 33 355 348 338 333 320 310 304 295 300 302 298
153 156 164 183 203 193 191 155 137 135 148 164 167 190 69 108 100 93 62 55 52 48 49 49 44 35 35 32 41 24 8 312 27 22 358 346 334 330 315 316 299 299 301 303
148 173 170 197 216 214 204 190 163 147 170 120 107 216 138 68 79 54 38 36 35 37 42 46 50 49 47 37 37 32 18 355 324 325 340 339 343 319 292 292 296 301 302 298
147 160 224 239 114 163 179 184 181 185 191 213 233 246 233 10 22 20 22 23 25 28 30 35 44 49 47 54 49 23 28 12 349 345 337 348 347 1 317 323 329 320 312 319
142 39 352 34 7 260 222 191 192 309 347 343 336 351 347 354 353 351 356 3 8 16 25 32 38 43 47 42 39 35 5 347 354 360 358 341 336 344 342 337 338 334 329 323
200 210 198 226 281 127 7 349 342 301 332 318 322 329 333 334 331 332 339 343 352 2 18 31 39 39 40 39 34 28 23 18 19 23 3 334 328 330 330 337 329 322 324 318
165 174 178 162 214 252 247 15 15 15 355 350 331 327 319 321 319 318 325 329 339 354 28 35 45 36 27 25 22 11 3 356 346 335 331 337 341 355 351 349 345 340 337 335
88 135 178 169 53 68 61 12 8 5 2 353 350 344 337 342 330 319 316 328 332 342 1 16 22 21 17 15 12 5 358 352 348 346 344 341 339 339 338 334 333 332 331 331
92 152 200 213 223 233 13 18 12 25 18 353 345 340 335 330 328 332 340 339 333 333 340 352 360 357 356 356 354 355 351 346 343 340 341 340 338 337 336 334 335 335 337 338
66 57 55 66 41 15 43 37 27 20 11 357 344 336 325 320 319 318 320 320 320 319 324 329 335 338 340 337 335 338 338 338 338 337 336 335 334 336 336 337 339 339 339 339
30 111 30 50 22 4 27 4 8 357 346 338 327 328 323 322 314 311 312 310 308 309 311 318 321 326 330 330 329 328 330 331 332 333 334 335 336 337 337 336 335 336 337 336
353 332 334 342 358 295 334 343 324 339 347 1 2 340 333 316 321 309 303 302 302 301 303 309 314 317 321 324 325 326 326 327 329 331 333 334 333 332 333 333 334 334 334 332
315 339 333 307 270 275 266 345 359 7 5 356 347 342 332 328 320 315 311 302 298 297 298 300 304 310 315 321 322 323 324 325 327 329 330 330 330 330 329 331 332 332 335 335
286 276 284 323 335 333 344 349 354 351 349 353 359 360 359 344 333 331 317 308 299 296 298 298 302 306 310 315 319 320 322 324 325 325 326 326 326 327 329 328 329 335 335 336